User: anonymous   Login
Location: ?????????
(53.2086°N, 54.0693°E)
Time: 06:39:33
(UTC+00:00)
Language:

Cosmos 1943 Rocket - Orbit

View from above orbital plane
View from above orbital plane
View from above satellite
View from above satellite

Ground track
Ground track

The orbit data is extracted from the following two-line orbital elements,

1 19120U 88039B   20049.71759596 +.00000070 +00000-0 +56013-4 0  9991
2 19120 071.0143 061.5280 0020234 135.3299 224.9460 14.19207344644664
Epoch (UTC): 18 February 2020 17:13:20
Eccentricity: 0.0020234
inclination: 71.0143°
perigee height: 813 km
apogee height: 842 km
right ascension of ascending node: 61.5280°
argument of perigee: 135.3299°
revolutions per day: 14.19207344
mean anomaly at epoch: 224.9460°
orbit number at epoch: 64466

The dashed part of the orbit path shows where the satellite is in the earth's shadow,  

DLR